Content
SEND FEEDBACK

Daily
Averages
Monthly
Summary
United States of America

ST. LOUIS, MISSOURI


Home > North America > United States > Missouri
Elevation: 163 meters     Latitude: 38 45N     Longitude: 090 22W

WEATHER
 
SELECT A DAY
Number of Records: 200,654;   Date Range: 1/1/95 - 11/27/14
 
SHARE

PRINT THIS DATA

[ ← Previous Day ]
WEATHER ALMANAC - 25 SEPTEMBER, 2013
[ Next Day → ]
[ °F ]   °C
Weather ElementAverageHighLow
Temperature20.2 °C27.2 °C (3:54 pm)16.1 °C (11:54 pm)
Dewpoint17.3 °C18.9 °C (11:54 am)15.6 °C (4:54 pm)
Humidity85.2 %100 % (1:38 am)50 % (4:54 pm)
Barometer1010.2 hPa1011.5 hPa (10:41 am)1008.1 hPa (1:54 am)
Wind Speed3.4 km/h13 km/h (2:54 pm)
Weather ElementAverage
Visibility9.8 km
Wind DirectionNE (45.9 °)

Weather ElementTotal
Precipitation---
Cooling Degree Days3.3 (Base 18.3)
Growing Degree Days11.7 (Base 10)
Averaged from 34 records on 25 September, 2013
WEATHER CONDITIONS BREAKOUT
WIND DIRECTION BREAKOUT
WEATHER BY HOUR - 25 SEPTEMBER, 2013
[ °F ]   °C
Local TimeTemperatureDewpointHumidityBarometerVisibilityWind DirectionWind SpeedGust SpeedPrecipitationEventsConditions
1:38 AM18 °C18 °C100 %1008.8 hPa2.9 kmSSW (210°)5.6 km/hScattered Clouds
1:41 AM18 °C17 °C94 %1008.8 hPa1.3 kmCalmScattered Clouds
1:54 AM17.8 °C17.8 °C100 %1008.1 hPa0.8 kmNE (50°)7.4 km/hFogFog
2:00 AM18 °C17 °C94 %1008.5 hPa4 kmEast (90°)7.4 km/hPartly Cloudy
2:07 AM18 °C17 °C94 %1008.8 hPa9.7 kmCalmPartly Cloudy
2:54 AM18.3 °C17.8 °C97 %1008.5 hPa11.3 kmENE (70°)7.4 km/hMostly Cloudy
3:54 AM18.9 °C17.8 °C93 %1008.5 hPa8 kmCalmOvercast
4:54 AM18.9 °C18.3 °C96 %1008.5 hPa9.7 kmCalmOvercast
5:07 AM19 °C18 °C94 %1009.5 hPa8 kmCalmOvercast
5:26 AM19 °C18 °C94 %1009.8 hPa6.4 kmCalmOvercast
5:54 AM18.9 °C18.3 °C96 %1009.1 hPa9.7 kmEast (100°)5.6 km/hOvercast
6:54 AM18.9 °C17.8 °C93 %1009.8 hPa11.3 kmESE (110°)5.6 km/hOvercast
7:54 AM20 °C18.3 °C90 %1010.2 hPa8 kmNE (40°)5.6 km/hOvercast
8:54 AM20 °C18.3 °C90 %1010.5 hPa11.3 kmEast (90°)7.4 km/hOvercast
9:54 AM20.6 °C18.3 °C87 %1010.8 hPa11.3 kmNNE (20°)7.4 km/hOvercast
10:41 AM22 °C18 °C78 %1011.5 hPa11.3 kmCalmOvercast
10:54 AM22.2 °C18.3 °C78 %1011.2 hPa12.9 kmNorth (360°)9.3 km/hOvercast
11:54 AM23.9 °C18.9 °C73 %1010.8 hPa16.1 kmSW (220°)7.4 km/hMostly Cloudy
12:54 PM24.4 °C17.2 °C64 %1010.8 hPa16.1 kmEast (90°)5.6 km/hOvercast
1:54 PM25 °C16.7 °C60 %1010.2 hPa16.1 kmCalmMostly Cloudy
2:54 PM26.7 °C16.7 °C54 %1009.8 hPa16.1 kmNNE (20°)13 km/hMostly Cloudy
3:54 PM27.2 °C16.7 °C52 %1009.5 hPa16.1 kmNNE (20°)9.3 km/hMostly Cloudy
4:54 PM26.7 °C15.6 °C50 %1009.5 hPa16.1 kmCalmScattered Clouds
5:54 PM26.7 °C16.1 °C52 %1009.8 hPa16.1 kmENE (70°)9.3 km/hScattered Clouds
6:54 PM21.7 °C18.3 °C81 %1009.8 hPa16.1 kmCalmScattered Clouds
7:54 PM20 °C17.8 °C87 %1010.5 hPa16.1 kmCalmScattered Clouds
8:54 PM19.4 °C17.2 °C87 %1010.5 hPa16.1 kmCalmClear
9:54 PM18.3 °C17.2 °C93 %1011.2 hPa9.7 kmCalmClear
10:54 PM17.8 °C17.2 °C96 %1011.2 hPa16.1 kmCalmClear
11:15 PM17 °C17 °C100 %1011.5 hPa2.9 kmCalmClear
11:25 PM17 °C16 °C94 %1011.5 hPa1.3 kmCalmClear
11:29 PM17 °C16 °C94 %1011.5 hPa3.2 kmCalmClear
11:36 PM17 °C16 °C94 %1011.5 hPa1.3 kmCalmClear
11:54 PM16.1 °C15.6 °C97 %1011.2 hPa1.9 kmCalmClear
Hourly data recorded from KSUS, located 0 kilometers away from St. Louis, Missouri







STORIES FROM OUR PARTNERS